College Station, TX

9:01 AM CST on January 17, 2017 (GMT -0600)
Easterwood

Weather History for KCLL - October, 2012

Change the Weather History Date:

Sunday, October 14, 2012

  Actual Average Record
Temperature  
Mean Temperature 77 °F 71 °F  
Max Temperature 87 °F 82 °F 95 °F (1910)
Min Temperature 66 °F 61 °F 44 °F (1914)
Degree Days  
Heating Degree Days 0 1  
Month to date heating degree days 12 4  
Since 1 July heating degree days 12 6  
Cooling Degree Days 12 7  
Month to date cooling degree days 127 122  
Year to date cooling degree days 3386 2918  
Growing Degree Days 27 (Base 50)    
Moisture  
Dew Point 68 °F    
Average Humidity 71    
Maximum Humidity 93    
Minimum Humidity 48    
Precipitation  
Precipitation 1.03 in 0.16 in 5.13 in (1957)
Month to date precipitation 1.37 2.13  
Year to date precipitation 36.12 30.83  
Sea Level Pressure  
Sea Level Pressure 30.01 in    
Wind  
Wind Speed 8 mph (WSW)    
Max Wind Speed 29 mph    
Max Gust Speed 35 mph    
Visibility 9 miles    
Events Fog , Rain , Thunderstorm    
T = Trace of Precipitation, MM = Missing Value Source: NWS Daily Summary

Daily Weather History Graph

Daily Weather History Graph

Search for Another Location

Airport or City:

Trip Planner

Search our weather history database for the weather conditions in past years. The results will help you decide how hot, cold, wet, or windy it might be!

Date:

Astronomy

Oct. 14, 2012 Rise Set
Actual Time 7:27 AM CDT 6:54 PM CDT
Civil Twilight 7:03 AM CDT 7:18 PM CDT
Nautical Twilight 6:35 AM CDT 7:46 PM CDT
Astronomical Twilight 6:07 AM CDT 8:14 PM CDT
Moon 6:28 AM CDT (10/14) 6:16 PM CDT (10/14)
Length of Visible Light 12h 15m
Length of Day
11h 27m
Waning Crescent, 1% of the Moon is Illuminated
Oct 14
Waning Crescent
Oct 15
New
Oct 21
First Quarter
Oct 29
Full
Nov 6
Last Quarter

Hourly Weather History & Observations

Time (CDT) Temp. Heat Index Dew Point Humidity Pressure Visibility Wind Dir Wind Speed Gust Speed Precip Events Conditions
12:53 AM 77.0 °F - 72.0 °F 84% 29.93 in 10.0 mi South 13.8 mph - N/A   Mostly Cloudy
1:00 AM 77.0 °F - 71.6 °F 83% 29.95 in 10.0 mi South 12.7 mph 19.6 mph N/A   Mostly Cloudy
1:53 AM 77.0 °F - 72.0 °F 84% 29.93 in 10.0 mi South 13.8 mph - N/A   Overcast
2:33 AM 77.0 °F - 71.6 °F 83% 29.92 in 10.0 mi South 17.3 mph 24.2 mph N/A   Partly Cloudy
2:53 AM 77.0 °F - 71.1 °F 82% 29.94 in 10.0 mi SSW 13.8 mph - N/A   Clear
3:53 AM 75.9 °F - 72.0 °F 87% 29.93 in 9.0 mi South 9.2 mph - 0.01 in Rain Light Rain
4:53 AM 75.9 °F - 72.0 °F 87% 29.95 in 10.0 mi SW 8.1 mph - 0.00 in   Scattered Clouds
5:17 AM 75.2 °F - 71.6 °F 89% 29.99 in 9.0 mi SW 8.1 mph - 0.01 in Rain , Thunderstorm Light Rain
5:45 AM 71.6 °F - 69.8 °F 94% 29.98 in 10.0 mi NNW 27.6 mph 34.5 mph 0.10 in Rain , Thunderstorm Light Thunderstorms and Rain
5:53 AM 69.1 °F - 66.9 °F 93% 30.01 in 3.0 mi NNW 16.1 mph 34.5 mph 0.25 in Rain , Thunderstorm Thunderstorms and Rain
5:55 AM 69.8 °F - 66.2 °F 88% 30.02 in 1.5 mi NNW 16.1 mph - 0.16 in Rain , Thunderstorm Heavy Thunderstorms and Rain
6:01 AM 69.8 °F - 69.8 °F 100% 30.02 in 0.5 mi Variable 5.8 mph 18.4 mph 0.62 in Fog , Rain , Thunderstorm Heavy Thunderstorms and Rain
6:08 AM 71.6 °F - 69.8 °F 94% 30.01 in 0.8 mi West 4.6 mph - 0.74 in Rain , Thunderstorm Heavy Thunderstorms and Rain
6:12 AM 71.6 °F - 69.8 °F 94% 30.02 in 2.5 mi West 10.4 mph - 0.76 in Rain , Thunderstorm Heavy Thunderstorms and Rain
6:18 AM 71.6 °F - 68.0 °F 88% 30.01 in 6.0 mi West 4.6 mph - 0.76 in Rain , Thunderstorm Light Thunderstorms and Rain
6:53 AM 70.0 °F - 68.0 °F 93% 30.01 in 10.0 mi South 9.2 mph - 0.76 in Thunderstorm Scattered Clouds
7:01 AM 69.8 °F - 68.0 °F 94% 30.03 in 10.0 mi South 8.1 mph - N/A Thunderstorm Mostly Cloudy
7:36 AM 69.8 °F - 69.8 °F 100% 30.03 in 10.0 mi SSW 4.6 mph - N/A   Overcast
7:53 AM 71.1 °F - 69.1 °F 93% 30.01 in 10.0 mi Calm Calm - N/A   Overcast
8:53 AM 73.9 °F - 72.0 °F 93% 30.01 in 10.0 mi SE 6.9 mph - N/A   Partly Cloudy
9:53 AM 75.0 °F - 71.1 °F 87% 30.05 in 10.0 mi SE 3.5 mph - N/A   Mostly Cloudy
10:07 AM 75.2 °F - 71.6 °F 89% 30.07 in 10.0 mi SSE 5.8 mph - N/A   Overcast
10:24 AM 75.2 °F - 71.6 °F 89% 30.07 in 10.0 mi SSE 9.2 mph - N/A   Mostly Cloudy
10:53 AM 78.1 °F - 73.0 °F 84% 30.06 in 10.0 mi South 8.1 mph - N/A   Mostly Cloudy
11:35 AM 78.8 °F - 73.4 °F 83% 30.07 in 10.0 mi SW 6.9 mph - 0.01 in   Overcast
11:42 AM 80.6 °F 85.4 °F 73.4 °F 79% 30.07 in 10.0 mi South 9.2 mph - 0.01 in   Overcast
11:53 AM 80.1 °F 84.2 °F 73.0 °F 79% 30.05 in 10.0 mi SW 5.8 mph - 0.01 in   Overcast
12:53 PM 81.0 °F 85.2 °F 72.0 °F 74% 30.03 in 10.0 mi West 6.9 mph - N/A   Overcast
1:53 PM 84.0 °F 89.0 °F 71.1 °F 65% 30.00 in 10.0 mi West 11.5 mph - 0.00 in   Partly Cloudy
2:53 PM 86.0 °F 89.4 °F 68.0 °F 55% 30.00 in 10.0 mi WNW 6.9 mph - N/A   Clear
3:53 PM 86.0 °F 88.8 °F 66.9 °F 53% 29.98 in 10.0 mi NNW 12.7 mph - N/A   Clear
4:53 PM 86.0 °F 87.6 °F 64.9 °F 49% 29.98 in 10.0 mi NW 9.2 mph - N/A   Clear
5:53 PM 84.9 °F 85.4 °F 62.1 °F 46% 29.98 in 10.0 mi NW 9.2 mph - N/A   Clear
6:53 PM 80.1 °F 80.7 °F 59.0 °F 48% 29.98 in 10.0 mi NNW 8.1 mph - N/A   Clear
7:53 PM 75.0 °F - 57.9 °F 55% 29.99 in 10.0 mi North 5.8 mph - N/A   Clear
8:53 PM 72.0 °F - 57.9 °F 61% 30.02 in 10.0 mi North 5.8 mph - N/A   Clear
9:53 PM 71.1 °F - 57.0 °F 61% 30.04 in 10.0 mi North 4.6 mph - N/A   Clear
10:53 PM 68.0 °F - 57.9 °F 70% 30.05 in 10.0 mi North 6.9 mph - N/A   Clear
11:53 PM 68.0 °F - 57.9 °F 70% 30.05 in 10.0 mi North 5.8 mph - N/A   Clear